Regional Weather Roundup
Issued by NWS

Home | Current Version | Previous Version | Graphics & Text | Print | Product List | Glossary Off
Versions: 1 2 3 4 5 6 7 8 9 10 11 12 13 14 15 16 17 18 19 20 21 22 23 24 25 26 27 28 29 30 31 32 33 34 35 36 37 38 39 40 41 42 43 44 45 46 47 48 49 50

000
ASUS43 KMKX 240000
RWRWI

WISCONSIN REGIONAL WEATHER ROUNDUP
NATIONAL WEATHER SERVICE MILWAUKEE/SULLIVAN WI
700 PM CDT SUN JUL 23 2017

NOTE: "FAIR" INDICATES FEW OR NO CLOUDS BELOW 12,000 FEET WITH NO
SIGNIFICANT WEATHER AND/OR OBSTRUCTIONS TO VISIBILITY.

WIZ001-002-006>008-014>016-023>028-240100-
NORTHWEST WISCONSIN

CITY           SKY/WX    TMP DP  RH WIND       PRES   REMARKS
SUPERIOR ARPT  NOT AVBL
ASHLAND        MOSUNNY   63  58  83 NE10      30.02R
6HR MIN TEMP:  59; 6HR MAX TEMP:  63; 6HR PCP:  0.02;

HAYWARD        CLOUDY    63  56  78 N12       30.01R
6HR MIN TEMP:  61; 6HR MAX TEMP:  63; 6HR PCP: TRACE;

SIREN          CLOUDY    66  57  72 NE7       30.00S
CUMBERLAND     CLOUDY    63  55  77 N10       29.99S
RICE LAKE      CLOUDY    64  58  78 N10       30.00S
6HR MIN TEMP:  64; 6HR MAX TEMP:  68;

CHETEK         CLOUDY    65  59  81 N13G21    29.97S
LADYSMITH      CLOUDY    64  58  79 N7        29.99S
EAU CLAIRE     NOT AVBL
MENOMONIE      CLOUDY    69  58  68 N12G17    29.97R
NEW RICHMOND   PTSUNNY   69  56  65 NE10      29.99R
OSCEOLA        CLOUDY    72  59  63 N9        30.01R
$$

WIZ003>005-009-010-017-018-240100-
NORTH CENTRAL WISCONSIN

CITY           SKY/WX    TMP DP  RH WIND       PRES   REMARKS
MANITOWISH WTR CLOUDY    61  61 100 NE8       29.99R
ARBOR VITAE    CLOUDY    62  58  87 NE7       29.98S
WOODRUFF       CLOUDY    62  58  87 NE7       29.98S
RHINELANDER    CLOUDY    62  57  83 NE9       29.99R
6HR MIN TEMP:  62; 6HR MAX TEMP:  72;

EAGLE RIVER    CLOUDY    61  54  77 N8        29.98R
LAND O LAKES   CLOUDY    61  55  82 N6        30.00S
PHILLIPS       CLOUDY    63  59  86 N10       29.98R
6HR MIN TEMP:  63; 6HR MAX TEMP:  66;

TOMAHAWK         N/A     64  56  73 NE6       29.96S
MEDFORD        CLOUDY    65  57  76 N10       29.95R
MERRILL        NOT AVBL
$$

WIZ029-030-035-036-043>047-240100-
CENTRAL WISCONSIN

CITY           SKY/WX    TMP DP  RH WIND       PRES   REMARKS
WAUSAU         MOSUNNY   69  58  67 N12G18    29.91R
6HR MIN TEMP:  68; 6HR MAX TEMP:  79;

MOSINEE        MOSUNNY   70  57  64 N15G23    29.92R
MARSHFIELD     MOSUNNY   69  57  65 N14G26    29.92R
6HR MIN TEMP:  69; 6HR MAX TEMP:  79;

STEVENS POINT  MOSUNNY   72  59  63 N13G21    29.89R
WAUPACA        PTSUNNY   78  61  55 N8        29.85R HX  80
WAUTOMA        MOSUNNY   77  62  59 N9        29.86R
6HR MIN TEMP:  76; 6HR MAX TEMP:  83;

WISC RAPIDS    SUNNY     76  60  57 N12G22    29.89R
6HR MIN TEMP:  76; 6HR MAX TEMP:  84;

CAMP DOUGLAS   NOT AVBL
$$

WIZ011>013-019>022-031-037>040-048>050-240100-
NORTHEAST WISCONSIN

CITY           SKY/WX    TMP DP  RH WIND       PRES   REMARKS
ANTIGO         PTSUNNY   66  56  71 NE14      29.93R
SHAWANO        MOSUNNY   74  60  61 N17G24    29.88R
OCONTO         CLOUDY    67  57  69 N10       29.87R
STURGEON BAY     N/A     65  59  81 N20G26    29.88R
6HR MIN TEMP:  65; 6HR MAX TEMP:  76;

GREEN BAY      PTSUNNY   73  63  70 N17G24    29.87R
6HR MIN TEMP:  70; 6HR MAX TEMP:  80; 6HR PCP:  0.05;

MANITOWOC      LGT RAIN  66  64  94 NE7       29.86R
APPLETON       PTSUNNY   72  63  73 NE16G22     N/A
CLINTONVILLE   MOSUNNY   73  57  56 NE15G23   29.86R
OSHKOSH        PTSUNNY   76  63  64 NE7       29.83R
6HR MIN TEMP:  75; 6HR MAX TEMP:  83;

$$

WIZ032>034-041-042-053>061-240100-
SOUTHWEST WISCONSIN

CITY           SKY/WX    TMP DP  RH WIND       PRES   REMARKS
LA CROSSE      SUNNY     76  60  57 N14       29.90R
6HR MIN TEMP:  76; 6HR MAX TEMP:  83;

SPARTA         SUNNY     74  59  59 NW10      29.90R
VIROQUA        PTSUNNY   74  63  66 N12       29.90R
BOSCOBEL       MOSUNNY   79  62  56 N8        29.87R HX  80
6HR MIN TEMP:  79; 6HR MAX TEMP:  86;

PRAIRIE DU CHI MOSUNNY   77  59  53 NW12      29.87R
PLATTEVILLE    MOSUNNY   77  63  61 NW13      29.87R
$$

WIZ056-057-062-063-064-067-068-240100-
SOUTH CENTRAL WISCONSIN

CITY           SKY/WX    TMP DP  RH WIND       PRES   REMARKS
REEDSBURG      MOSUNNY   76  62  61 N9G18     29.86R
BARABOO/DELLS  SUNNY     78  57  48 N7G18     29.87R
LONE ROCK      NOT AVBL
MINERAL POINT  SUNNY     79  61  53 N9        29.88R HX  80
MADISON        MOSUNNY   79  61  53 NW9       29.84R HX  80
6HR MIN TEMP:  79; 6HR MAX TEMP:  83;

MIDDLETON      MOSUNNY   80  61  52 NW8       29.85S HX  81
WATERTOWN      MOSUNNY   79  62  56 NW10      29.82S HX  80
MONROE         MOSUNNY   77  61  57 N12G18    29.85R
JANESVILLE     PTSUNNY   81  66  61 SW5       29.83R HX  83
$$

WIZ051-052-058>065-066-070>072-240100-
SOUTHEAST WISCONSIN

CITY           SKY/WX    TMP DP  RH WIND       PRES   REMARKS
MILWAUKEE      PTSUNNY   75  67  76 NE13      29.81R
6HR MIN TEMP:  75; 6HR MAX TEMP:  86; 6HR PCP:  0.01;

WAUKESHA       MOSUNNY   77  61  57 NW9       29.83R
MILWAUKEE/TIMM PTSUNNY   75  63  64 NE8       29.82R
RACINE         PTSUNNY   79  68  69 CALM      29.82S HX  81
6HR MIN TEMP:  75; 6HR MAX TEMP:  86;

KENOSHA        CLOUDY    76  69  79 SW3       29.81S
6HR MIN TEMP:  73; 6HR MAX TEMP:  87;

FOND DU LAC    PTSUNNY   77  60  55 N12       29.84R
6HR MIN TEMP:  76; 6HR MAX TEMP:  83;

SHEBOYGAN      CLOUDY    70  67  90 NE14      29.85R
6HR MIN TEMP:  70; 6HR MAX TEMP:  83;

WEST BEND      MOSUNNY   73  66  78 NE6       29.83R
JUNEAU         MOSUNNY   78  61  55 NW5       29.84R HX  80
$$

LSZ147-162-240100-
LAKE SUPERIOR

STATION/POSITION TIME  TEMP    WIND        PRES    WAVE
                       AIR SEA DIR/SP/G            HT/PER
                 (UTC) (F)     (DEG/KT/KT) (MB)    (FT/S)
W MID LAKE BUOY  2250   51 48   30/  4/  4 1016.1S   2/ 4
DEVILS ISLAND    2300   57      30/  5/  6 1016.5F
SAXON HARBOR     2340   61      20/  6/  7 1015.9R
$$

LMZ867-665-643>646-240100-
LAKE MICHIGAN

STATION/POSITION TIME  TEMP    WIND        PRES    WAVE
                       AIR SEA DIR/SP/G            HT/PER
                 (UTC) (F)     (DEG/KT/KT) (MB)    (FT/S)
CHAMBERS ISLAND  2340   66     340/ 21/ 24 1011.2R
S GREEN BAY BUOY 2330   70 73  360/ 19/ 23 1011.0R
N MID LAKE BUOY  2150   66 67   50/ 14/ 16 1010.0R   2/ 3
NORTHPORT PIER   2340   65     350/ 21/ 24 1011.2R
KEWAUNEE LAKESHO 2330   70     360/  6/ 14 1010.0R
SHEBOYGAN LAKESH 2300   70      40/  7/  7 1009.4R
PORT WASHINGTON  2330   73      30/  6/  7 1010.5S
ATWATER BUOY     2209   73 70  110/  4/  4 1009.1R
MILWAUKEE LAKESH 2330   72      30/  9/ 11   N/A
S MID LAKE BUOY  2250   72 71   20/  6/  8 1008.5S   0
KENOSHA   LAKESH 2300   77      60/  2/  2 1009.1
$$

TC  - TEMPERATURE IN CELSIUS
VSB - VISIBILITY IN STATUTE MILES
WCI - WIND CHILL INDEX
HX  - HEAT INDEX





USA.gov is the U.S. government's official web portal to all federal, state and local government web resources and services.